Regional Weather Roundup
Issued by NWS

Home | Current Version | Previous Version | Graphics & Text | Print | Product List | Glossary Off
Versions: 1 2 3 4 5 6 7 8 9 10 11 12 13 14 15 16 17 18 19 20 21 22 23 24 25 26 27 28 29 30 31 32 33 34 35 36 37 38 39 40 41 42 43 44 45 46 47 48 49 50

073
ASUS43 KTOP 241759
RWRKS

WEATHER ROUNDUP FOR KANSAS
NATIONAL WEATHER SERVICE GOODLAND KS
100 PM CDT WED AUG 24 2016

NOTE:  "FAIR" INDICATES FEW OR NO CLOUDS BELOW 12,000 FEET WITH NO
SIGNIFICANT WEATHER AND/OR OBSTRUCTIONS TO VISIBILITY.

KSZ001>006-013>018-027>032-041>047-241900-
NORTHWEST KANSAS

CITY           SKY/WX    TMP DP  RH WIND       PRES   REMARKS
GOODLAND       CLOUDY    71  38  29 NE21G26   30.16R
6HR MIN TEMP:  61; 6HR MAX TEMP:  73; 6HR PCP: TRACE;

HAYS           CLOUDY    70  59  68 N17       30.02F
HILL CITY      CLOUDY    73  53  49 E13G21    30.07R
6HR MIN TEMP:  64; 6HR MAX TEMP:  73; 6HR PCP:  0.14;

$$

KSZ061>065-074>080-084>089-241900-
SOUTHWEST KANSAS

CITY           SKY/WX    TMP DP  RH WIND       PRES   REMARKS
DODGE CITY     CLOUDY    83  60  45 VRB5      30.03F
6HR MIN TEMP:  73; 6HR MAX TEMP:  83; 6HR PCP: TRACE;

ELKHART          N/A     77  52  41 W6          N/A
GARDEN CITY    PTSUNNY   81  60  48 E14       30.03F
6HR MIN TEMP:  68; 6HR MAX TEMP:  81;

GREAT BEND     CLOUDY    79  64  61 S14       30.00R
LIBERAL        CLOUDY    77  55  47 NW5       30.08R
$$

KSZ066>073-081>083-090>101-241900-
SOUTHEAST KANSAS

CITY           SKY/WX    TMP DP  RH WIND       PRES   REMARKS
CHANUTE        SUNNY     90  71  53 SW12G17   30.02F HX  96
6HR MIN TEMP:  77; 6HR MAX TEMP:  90; 6HR PCP: TRACE;

COFFEYVILLE    MOSUNNY   93  71  48 S15G22    30.02F HX 100
6HR MIN TEMP:  78; 6HR MAX TEMP:  93;

HUTCHINSON     MOSUNNY   84  69  60 S10       29.99F
6HR MIN TEMP:  72; 6HR MAX TEMP:  84; 6HR PCP:  0.05;

NEWTON         CLOUDY    82  68  62 S14       30.01F
PARSONS        SUNNY     91  70  49 S10       30.04S HX  96
6HR MIN TEMP:  77; 6HR MAX TEMP:  92;

WICHITA INTL   MOSUNNY   87  68  52 S12       29.99F
6HR MIN TEMP:  74; 6HR MAX TEMP:  87; 6HR PCP: TRACE;

WICHITA JABRA  MOSUNNY   84  69  60 S12       30.00F
6HR MIN TEMP:  75; 6HR MAX TEMP:  85; 6HR PCP: TRACE;

WINFIELD       MOSUNNY   89  69  51 S14       30.02F
6HR MIN TEMP:  77; 6HR MAX TEMP:  90;

$$

KSZ007>012-019>026-033>040-048>060-102>105-241900-
NORTHEAST KANSAS

CITY           SKY/WX    TMP DP  RH WIND       PRES   REMARKS
CONCORDIA      MOSUNNY   75  67  76 NE10      29.99F
6HR MIN TEMP:  68; 6HR MAX TEMP:  79;

EMPORIA        CLOUDY    83  70  64 S12       30.01S
6HR MIN TEMP:  74; 6HR MAX TEMP:  83; 6HR PCP:  0.03;

LAWRENCE       LGT RAIN  79  72  79 SW5       30.00F
6HR MIN TEMP:  68; 6HR MAX TEMP:  79; 6HR PCP:  0.01;

MANHATTAN      CLOUDY    81  71  71 S7        29.99S
6HR MIN TEMP:  70; 6HR MAX TEMP:  81; 6HR PCP: TRACE;

OLATHE IND     CLOUDY    83  74  74 SW8       30.03F
6HR MIN TEMP:  69; 6HR MAX TEMP:  84; 6HR PCP:  0.05;

OLATHE EXE     CLOUDY    83  71  67 SW8       30.03S
6HR MIN TEMP:  67; 6HR MAX TEMP:  84; 6HR PCP: TRACE;

SALINA         MOSUNNY   83  65  54 S10       29.97S
6HR MIN TEMP:  77; 6HR MAX TEMP:  87;

TOPEKA BILLARD CLOUDY    78  73  84 E3        29.99F
6HR MIN TEMP:  70; 6HR MAX TEMP:  80; 6HR PCP:  0.04;

TOPEKA FORBES  CLOUDY    77  71  82 S7        30.01F
6HR MIN TEMP:  71; 6HR MAX TEMP:  80; 6HR PCP:  0.01;

$$




USA.gov is the U.S. government's official web portal to all federal, state and local government web resources and services.